This demonstration page uses our WeatherBlox Daily Observations layout. Learn more.

Left ArrowRight Arrow

44.8408, -93.29828

Hourly Observations for September 2, 2018

Temp ( °F °C ) Dew Point ( °F °C ) Humidity (%) Winds ( mph kmh ) Pressure ( in mb ) Visibility ( mi km ) Precip ( " mm )
12:53 am 00:53 Partly Cloudy 73 22.8 71 21.7 94 94 SSE 7 11 29.89 1012 10 16 0.00 0.00
1:53 am 01:53 Partly Cloudy 74 23.3 70 21.1 88 88 S 6 9 29.89 1012 10 16 0.00 0.00
2:53 am 02:53 Cloudy 73 22.8 70 21.1 90 90 SE 5 7 29.88 1012 10 16 0.00 0.00
3:53 am 03:53 Mostly Cloudy 74 23.3 70 21.1 88 88 S 7 11 29.88 1012 10 16 0.00 0.00
4:11 am 04:11 Cloudy 75 23.9 70 21.1 84 84 SSW 12 19 29.88 1012 10 16 0.00 0.00
4:53 am 04:53 Cloudy 74 23.3 66 18.9 76 76 SW 18 30 29.88 1012 10 16 0.00 0.00
5:53 am 05:53 Mostly Cloudy 72 22.2 66 18.9 82 82 S 3 6 29.88 1012 10 16 0.00 0.00
6:53 am 06:53 Mostly Cloudy 71 21.7 66 18.9 84 84 SE 3 6 29.86 1011 10 16 0.00 0.00
7:53 am 07:53 Mostly Cloudy 72 22.2 66 18.9 82 82 S 7 11 29.89 1012 10 16 0.00 0.00
8:53 am 08:53 Cloudy with Light Rain 72 22.2 66 18.9 82 82 SW 8 13 29.93 1014 7 11 0.00 0.03
9:33 am 09:33 Cloudy with Rain 69 20.6 67 19.4 93 93 W 7 11 29.94 1014 5 8 0.03 0.76
9:53 am 09:53 Cloudy with Rain 69 20.6 67 19.4 93 93 SW 8 13 29.94 1014 4 6 0.07 1.78
10:32 am 10:32 Cloudy with Light Rain 70 21.1 68 20 93 93 SSW 6 9 29.94 1014 6 10 0.16 4.06
10:53 am 10:53 Cloudy 70 21.1 69 20.6 97 97 S 7 11 29.93 1013 10 16 0.18 4.57
11:53 am 11:53 Cloudy 72 22.2 69 20.6 91 91 S 14 22 29.91 1013 10 16 0.00 0.00
12:53 pm 12:53 Mostly Cloudy 73 22.8 68 20 84 84 SSW 13 20 29.91 1013 10 16 0.00 0.00
1:53 pm 13:53 Mostly Cloudy 76 24.4 69 20.6 79 79 WSW 12 19 29.93 1013 10 16 0.00 0.00
2:53 pm 14:53 Mostly Cloudy 80 26.7 67 19.4 64 64 WSW 12 19 29.93 1014 10 16 0.00 0.00
3:53 pm 15:53 Mostly Cloudy 82 27.8 65 18.3 56 56 W 12 19 29.94 1014 10 16 0.00 0.00
4:53 pm 16:53 Mostly Cloudy 81 27.2 65 18.3 58 58 W 14 22 29.94 1014 10 16 0.00 0.00
5:53 pm 17:53 Mostly Cloudy 79 26.1 64 17.8 60 60 W 10 17 29.95 1014 10 16 0.00 0.00
6:53 pm 18:53 Mostly Cloudy 79 26.1 64 17.8 60 60 W 5 7 29.95 1014 10 16 0.00 0.00
7:53 pm 19:53 Mostly Cloudy 77 25 65 18.3 66 66 NW 5 7 29.97 1015 10 16 0.00 0.00
8:53 pm 20:53 Mostly Cloudy 75 23.9 66 18.9 74 74 NW 3 6 29.98 1015 10 16 0.00 0.00
9:53 pm 21:53 Mostly Cloudy 74 23.3 66 18.9 76 76 Calm 30.01 1016 10 16 0.00 0.00
10:53 pm 22:53 Mostly Cloudy 72 22.2 66 18.9 82 82 SSE 5 7 30.03 1017 10 16 0.00 0.00
11:53 pm 23:53 Mostly Cloudy 69 20.6 66 18.9 90 90 Calm 30.05 1018 10 16 0.00 0.00

Powered by AerisWeather